TimeMDT,TemperatureF,Dew PointF,Humidity,Sea Level PressureIn,VisibilityMPH,Wind Direction,Wind SpeedMPH,Gust SpeedMPH,PrecipitationIn,Events,Conditions,WindDirDegrees,DateUTC
12:53 AM,70.0,53.1,55,29.97,10.0,Calm,Calm,-,N/A,,Clear,0,2013-08-31 06:53:00
1:53 AM,68.0,55.9,65,29.98,10.0,NE,4.6,-,N/A,,Clear,40,2013-08-31 07:53:00
2:53 AM,66.9,55.0,66,29.98,10.0,Calm,Calm,-,N/A,,Partly Cloudy,0,2013-08-31 08:53:00
3:53 AM,64.9,55.0,70,29.97,10.0,Calm,Calm,-,N/A,,Clear,0,2013-08-31 09:53:00
4:53 AM,64.9,55.0,70,29.96,10.0,NE,4.6,-,N/A,,Clear,50,2013-08-31 10:53:00
5:53 AM,63.0,55.0,75,29.98,10.0,NE,5.8,-,N/A,,Clear,40,2013-08-31 11:53:00
6:53 AM,62.1,55.0,78,30.04,10.0,East,4.6,-,N/A,,Clear,90,2013-08-31 12:53:00
7:53 AM,66.0,55.0,68,30.02,10.0,East,5.8,-,N/A,,Clear,100,2013-08-31 13:53:00
8:53 AM,70.0,55.9,61,30.04,10.0,Calm,Calm,-,N/A,,Clear,0,2013-08-31 14:53:00
9:53 AM,73.0,57.9,59,30.02,10.0,East,3.5,-,N/A,,Clear,100,2013-08-31 15:53:00
10:53 AM,75.9,57.0,52,30.01,10.0,Calm,Calm,-,N/A,,Clear,0,2013-08-31 16:53:00
11:53 AM,80.1,57.9,47,30.00,10.0,Calm,Calm,-,N/A,,Clear,0,2013-08-31 17:53:00
12:53 PM,82.9,55.0,38,29.96,10.0,Calm,Calm,-,N/A,,Clear,0,2013-08-31 18:53:00
1:53 PM,84.9,55.9,37,29.93,10.0,WNW,6.9,16.1,N/A,,Clear,300,2013-08-31 19:53:00
2:53 PM,88.0,54.0,31,29.89,10.0,West,8.1,-,N/A,,Clear,260,2013-08-31 20:53:00
3:53 PM,88.0,52.0,29,29.87,10.0,Variable,6.9,-,N/A,,Clear,0,2013-08-31 21:53:00
4:53 PM,90.0,48.9,24,29.85,10.0,Variable,4.6,-,N/A,,Clear,0,2013-08-31 22:53:00
5:53 PM,86.0,48.9,28,29.86,10.0,West,5.8,-,N/A,,Clear,270,2013-08-31 23:53:00
6:53 PM,84.0,50.0,31,29.87,10.0,WNW,5.8,-,N/A,,Clear,300,2013-09-01 00:53:00
7:53 PM,82.0,50.0,33,29.88,10.0,NW,8.1,-,N/A,,Clear,310,2013-09-01 01:53:00
8:53 PM,79.0,54.0,42,29.89,10.0,West,9.2,-,N/A,,Clear,280,2013-09-01 02:53:00
9:53 PM,73.9,55.9,53,29.92,10.0,West,4.6,-,N/A,,Clear,270,2013-09-01 03:53:00
10:53 PM,73.0,55.0,53,29.92,10.0,WSW,6.9,-,N/A,,Clear,250,2013-09-01 04:53:00
11:53 PM,72.0,55.0,55,29.92,10.0,SSE,3.5,-,N/A,,Clear,160,2013-09-01 05:53:00